Wolf Creek Pass, CO

10:24 PM MST on January 19, 2018 (GMT -0700)
Wolf Creek Pass

Weather History for KCPW - January, 2013

Change the Weather History Date:

Tuesday, January 22, 2013

  Actual Average (KALS) Record (KALS)
Temperature  
Mean Temperature 31 °F -  
Max Temperature 39 °F 33 °F 58 °F (1951)
Min Temperature 23 °F -4 °F -31 °F (1959)
Degree Days  
Heating Degree Days 34    
Moisture  
Dew Point -17 °F    
Average Humidity 13    
Maximum Humidity 29    
Minimum Humidity 4    
Precipitation  
Precipitation 0.00 in - - ()
Sea Level Pressure  
Sea Level Pressure 30.42 in    
Wind  
Wind Speed 11 mph (NNW)    
Max Wind Speed 24 mph    
Max Gust Speed 29 mph    
Visibility 10 miles    
Events      
Averages and records for this station are not official NWS values.
T = Trace of Precipitation, MM = Missing Value Source: NWS Daily Summary

Daily Weather History Graph

Daily Weather History Graph

Search for Another Location

Airport or City:

Trip Planner

Search our weather history database for the weather conditions in past years. The results will help you decide how hot, cold, wet, or windy it might be!

Date:

Astronomy

Jan. 22, 2013 Rise Set
Actual Time 7:17 AM MST 5:20 PM MST
Civil Twilight 6:49 AM MST 5:48 PM MST
Nautical Twilight 6:17 AM MST 6:20 PM MST
Astronomical Twilight 5:46 AM MST 6:51 PM MST
Moon 1:46 PM MST (1/22) 3:40 AM MST (1/22)
Length of Visible Light 10h 59m
Length of Day
10h 03m
Waxing Gibbous, 83% of the Moon is Illuminated
Jan 22
Waxing Gibbous
Jan 26
Full
Feb 3
Last Quarter
Feb 10
New
Feb 17
First Quarter

Hourly Weather History & Observations

Time (MST) Temp. Windchill Dew Point Humidity Pressure Visibility Wind Dir Wind Speed Gust Speed Precip Events Conditions
12:08 AM 26.6 °F 13.1 °F -2.2 °F 29% 30.37 in 10.0 mi NNE 19.6 mph 28.8 mph N/A   Clear
12:28 AM 26.6 °F 12.0 °F -5.8 °F 24% 30.36 in 10.0 mi NE 23.0 mph 26.5 mph N/A   Clear
12:48 AM 26.6 °F 12.7 °F -9.4 °F 21% 30.36 in 10.0 mi NE 20.7 mph 27.6 mph N/A   Clear
1:08 AM 26.6 °F 11.7 °F -9.4 °F 21% 30.37 in 10.0 mi NNE 24.2 mph 27.6 mph N/A   Clear
1:28 AM 26.6 °F 12.7 °F -13.0 °F 17% 30.37 in 10.0 mi NNE 20.7 mph 28.8 mph N/A   Clear
1:48 AM 26.6 °F 13.4 °F -13.0 °F 17% 30.37 in 10.0 mi NE 18.4 mph 28.8 mph N/A   Clear
2:08 AM 26.6 °F 13.8 °F -13.0 °F 17% 30.37 in 10.0 mi NE 17.3 mph 28.8 mph N/A   Clear
2:28 AM 24.8 °F 11.9 °F -13.0 °F 19% 30.38 in 10.0 mi NE 16.1 mph 24.2 mph N/A   Clear
2:48 AM 24.8 °F 12.9 °F -14.8 °F 17% 30.38 in 10.0 mi NE 13.8 mph 19.6 mph N/A   Clear
3:08 AM 26.6 °F 15.2 °F -14.8 °F 16% 30.38 in 10.0 mi NNE 13.8 mph 24.2 mph N/A   Clear
3:28 AM 26.6 °F 19.1 °F -14.8 °F 16% 30.38 in 10.0 mi NE 6.9 mph 17.3 mph N/A   Clear
3:48 AM 24.8 °F 20.5 °F -14.8 °F 17% 30.38 in 10.0 mi North 3.5 mph - N/A   Clear
4:08 AM 26.6 °F 20.0 °F -14.8 °F 16% 30.37 in 10.0 mi North 5.8 mph - N/A   Clear
4:28 AM 24.8 °F 20.5 °F -14.8 °F 17% 30.37 in 10.0 mi SW 3.5 mph - N/A   Clear
4:48 AM 26.6 °F 20.0 °F -16.6 °F 14% 30.36 in 10.0 mi NE 5.8 mph - N/A   Clear
5:08 AM 26.6 °F 17.5 °F -18.4 °F 13% 30.36 in 10.0 mi NNE 9.2 mph - N/A   Clear
5:28 AM 26.6 °F 17.5 °F -20.2 °F 12% 30.37 in 10.0 mi North 9.2 mph - N/A   Clear
5:48 AM 26.6 °F 20.0 °F -20.2 °F 12% 30.37 in 10.0 mi SSW 5.8 mph - N/A   Clear
6:08 AM 26.6 °F 19.1 °F -18.4 °F 13% 30.38 in 10.0 mi West 6.9 mph - N/A   Clear
6:28 AM 26.6 °F 15.7 °F -14.8 °F 16% 30.38 in 10.0 mi SW 12.7 mph - N/A   Clear
6:48 AM 24.8 °F 14.0 °F -16.6 °F 16% 30.39 in 10.0 mi SSW 11.5 mph - N/A   Clear
7:08 AM 23.0 °F 11.1 °F -16.6 °F 17% 30.39 in 10.0 mi SW 12.7 mph - N/A   Clear
7:28 AM 23.0 °F 12.4 °F -13.0 °F 20% 30.39 in 10.0 mi SW 10.4 mph 20.7 mph N/A   Clear
7:48 AM 24.8 °F 13.4 °F -13.0 °F 19% 30.39 in 10.0 mi SSW 12.7 mph - N/A   Clear
8:08 AM 26.6 °F 16.2 °F -13.0 °F 17% 30.39 in 10.0 mi SSW 11.5 mph - N/A   Clear
8:28 AM 26.6 °F 18.2 °F -13.0 °F 17% 30.40 in 10.0 mi SSW 8.1 mph - N/A   Clear
8:48 AM 28.4 °F 22.2 °F -13.0 °F 16% 30.41 in 10.0 mi SW 5.8 mph - N/A   Clear
9:08 AM 32.0 °F 27.5 °F -13.0 °F 14% 30.42 in 10.0 mi WSW 4.6 mph - N/A   Clear
9:28 AM 32.0 °F 28.7 °F -14.8 °F 13% 30.42 in 10.0 mi NW 3.5 mph - N/A   Clear
9:48 AM 32.0 °F 25.6 °F -13.0 °F 14% 30.44 in 10.0 mi NNE 6.9 mph - N/A   Clear
10:08 AM 32.0 °F - -13.0 °F 14% 30.44 in 10.0 mi Calm Calm - N/A   Clear
10:28 AM 33.8 °F 29.6 °F -13.0 °F 13% 30.45 in 10.0 mi NW 4.6 mph - N/A   Clear
10:48 AM 33.8 °F 30.8 °F -14.8 °F 12% 30.45 in 10.0 mi NNW 3.5 mph - N/A   Clear
11:08 AM 33.8 °F 28.6 °F -13.0 °F 13% 30.45 in 10.0 mi NE 5.8 mph - N/A   Clear
11:28 AM 35.6 °F 29.9 °F -14.8 °F 11% 30.45 in 10.0 mi North 6.9 mph - N/A   Clear
11:48 AM 35.6 °F 29.9 °F -14.8 °F 11% 30.44 in 10.0 mi North 6.9 mph - N/A   Clear
12:08 PM 35.6 °F 28.0 °F -14.8 °F 11% 30.44 in 10.0 mi NNE 10.4 mph 17.3 mph N/A   Clear
12:28 PM 35.6 °F 29.9 °F -14.8 °F 11% 30.43 in 10.0 mi North 6.9 mph - N/A   Clear
12:48 PM 35.6 °F 29.2 °F -18.4 °F 9% 30.43 in 10.0 mi North 8.1 mph 17.3 mph N/A   Clear
1:08 PM 37.4 °F 34.9 °F -11.2 °F 12% 30.42 in 10.0 mi West 3.5 mph - N/A   Clear
1:28 PM 37.4 °F 34.9 °F -13.0 °F 11% 30.42 in 10.0 mi North 3.5 mph - N/A   Clear
1:48 PM 35.6 °F 29.2 °F -14.8 °F 11% 30.42 in 10.0 mi North 8.1 mph - N/A   Clear
2:08 PM 37.4 °F - -14.8 °F 10% 30.42 in 10.0 mi Calm Calm - N/A   Clear
2:28 PM 39.2 °F 35.0 °F -13.0 °F 10% 30.42 in 10.0 mi NNW 5.8 mph - N/A   Clear
2:48 PM 37.4 °F 31.4 °F -16.6 °F 9% 30.42 in 10.0 mi NNW 8.1 mph 17.3 mph N/A   Clear
3:08 PM 35.6 °F 29.2 °F -22.0 °F 8% 30.43 in 10.0 mi NNW 8.1 mph 20.7 mph N/A   Clear
3:28 PM 37.4 °F 30.3 °F -16.6 °F 9% 30.43 in 10.0 mi NNW 10.4 mph 21.9 mph N/A   Clear
3:48 PM 37.4 °F - -16.6 °F 9% 30.43 in 10.0 mi Calm Calm - N/A   Clear
4:09 PM 35.6 °F 32.8 °F -16.6 °F 10% 30.43 in 10.0 mi NNW 3.5 mph - N/A   Clear
4:28 PM 35.6 °F 29.9 °F -16.6 °F 10% 30.44 in 10.0 mi NNW 6.9 mph - N/A   Clear
4:49 PM 33.8 °F 27.0 °F -16.6 °F 11% 30.44 in 10.0 mi NNW 8.1 mph - N/A   Clear
5:09 PM 32.0 °F 26.4 °F -16.6 °F 12% 30.44 in 10.0 mi NNW 5.8 mph - N/A   Clear
5:29 PM 32.0 °F 28.7 °F -16.6 °F 12% 30.44 in 10.0 mi NNW 3.5 mph - N/A   Clear
5:49 PM 32.0 °F 26.4 °F -16.6 °F 12% 30.44 in 10.0 mi NNW 5.8 mph - N/A   Clear
6:09 PM 32.0 °F 26.4 °F -16.6 °F 12% 30.44 in 10.0 mi NNW 5.8 mph - N/A   Clear
6:28 PM 32.0 °F 25.6 °F -23.8 °F 8% 30.45 in 10.0 mi NNW 6.9 mph - N/A   Clear
6:49 PM 32.0 °F 26.4 °F -25.6 °F 7% 30.45 in 10.0 mi NNW 5.8 mph - N/A   Clear
7:09 PM 32.0 °F - -27.4 °F 7% 30.45 in 10.0 mi Calm Calm - N/A   Clear
7:29 PM 32.0 °F 26.4 °F -27.4 °F 7% 30.46 in 10.0 mi WNW 5.8 mph - N/A   Clear
7:49 PM 30.2 °F - -22.0 °F 10% 30.46 in 10.0 mi Calm Calm - N/A   Clear
8:09 PM 30.2 °F 25.4 °F -20.2 °F 10% 30.47 in 10.0 mi SW 4.6 mph - N/A   Clear
8:29 PM 30.2 °F 24.3 °F -14.8 °F 14% 30.46 in 10.0 mi SSW 5.8 mph - N/A   Clear
8:49 PM 30.2 °F 23.4 °F -14.8 °F 14% 30.47 in 10.0 mi SW 6.9 mph - N/A   Clear
9:09 PM 30.2 °F 25.4 °F -14.8 °F 14% 30.48 in 10.0 mi SSW 4.6 mph - N/A   Clear
9:29 PM 30.2 °F 26.7 °F -18.4 °F 11% 30.48 in 10.0 mi NNW 3.5 mph - N/A   Clear
9:49 PM 32.0 °F - -27.4 °F 7% 30.48 in 10.0 mi Calm Calm - N/A   Clear
10:09 PM 30.2 °F 24.3 °F -18.4 °F 11% 30.47 in 10.0 mi SSW 5.8 mph - N/A   Clear
10:29 PM 32.0 °F 25.6 °F -18.4 °F 11% 30.48 in 10.0 mi SW 6.9 mph - N/A   Clear
10:49 PM 30.2 °F 23.4 °F -31.0 °F 6% 30.48 in 10.0 mi WNW 6.9 mph - N/A   Clear
11:09 PM 30.2 °F 22.6 °F -34.6 °F 5% 30.49 in 10.0 mi West 8.1 mph - N/A   Clear
11:29 PM 30.2 °F 24.3 °F -36.4 °F 5% 30.49 in 10.0 mi West 5.8 mph - N/A   Clear
11:49 PM 32.0 °F 27.5 °F -40.0 °F 4% 30.49 in 10.0 mi SW 4.6 mph - N/A   Clear